Weather History for West Palm Beach, FL

Change the Weather History Date:

Thursday, November 3, 2011

  Actual Average Record
Temperature  
Mean Temperature 74 °F 75 °F  
Max Temperature 82 °F 82 °F 92 °F (1919)
Min Temperature 66 °F 68 °F 49 °F (1966)
Degree Days  
Heating Degree Days 0 0  
Month to date heating degree days 0 0  
Since 1 July heating degree days 0 1  
Cooling Degree Days 9 10  
Month to date cooling degree days 33 30  
Year to date cooling degree days 4322 3651  
Growing Degree Days 28 (Base 50)    
Moisture  
Dew Point 63 °F    
Average Humidity 67    
Maximum Humidity 79    
Minimum Humidity 54    
Precipitation  
Precipitation 0.00 in 0.17 in 3.94 in (1987)
Month to date precipitation 0.02 0.52  
Year to date precipitation 45.68 54.72  
Snow  
Snow 0.00 in - - ()
Month to date snowfall 0.0  
Since 1 July snowfall 0.0  
Since 1 September snowfall 0.0  
Snow Depth 0.00 in    
Sea Level Pressure  
Sea Level Pressure 30.03 in    
Wind  
Wind Speed 9 mph (East)    
Max Wind Speed 20 mph    
Max Gust Speed 24 mph    
Visibility 10 miles    
Events      
T = Trace of Precipitation, MM = Missing Value Source: NWS Daily Summary

Daily Weather History Graph

Daily Weather History Graph

Search for Another Location

Airport:

Trip Planner

Search our weather history database for the weather conditions in past years. The results will help you decide how hot, cold, wet, or windy it might be!

Date:

Astronomy

Nov. 03, 2011 Rise Set
Actual Time 7:31 AM EDT 6:36 PM EDT
Civil Twilight 7:07 AM EDT 7:00 PM EDT
Nautical Twilight 6:39 AM EDT 7:27 PM EDT
Astronomical Twilight 6:12 AM EDT 7:55 PM EDT
Moon 2:25 PM EDT (11/3) 1:18 AM EDT (11/3)
Length of Visible Light 11h 53m
Length of Day
11h 05m
First Quarter, 60% of the Moon is Illuminated
Nov 3
First Quarter
Nov 10
Full
Nov 18
Last Quarter
Nov 25
New
Dec 2
First Quarter

Hourly Weather History & Observations

Time (EDT) Temp. Heat Index Dew Point Humidity Pressure Visibility Wind Dir Wind Speed Gust Speed Precip Events Conditions
12:53 AM 75.0 °F - 61.0 °F 62% 30.09 in 10.0 mi East 12.7 mph - N/A   Partly Cloudy
1:53 AM 75.0 °F - 59.0 °F 57% 30.08 in 10.0 mi East 11.5 mph - N/A   Partly Cloudy
2:53 AM 73.9 °F - 59.0 °F 59% 30.06 in 10.0 mi East 11.5 mph - N/A   Partly Cloudy
3:53 AM 75.0 °F - 61.0 °F 62% 30.05 in 10.0 mi East 11.5 mph - N/A   Scattered Clouds
4:53 AM 75.0 °F - 57.0 °F 53% 30.05 in 10.0 mi East 8.1 mph - N/A   Scattered Clouds
5:53 AM 73.0 °F - 59.0 °F 61% 30.06 in 10.0 mi East 6.9 mph - N/A   Partly Cloudy
6:53 AM 73.0 °F - 60.1 °F 64% 30.06 in 10.0 mi ENE 4.6 mph - N/A   Scattered Clouds
7:53 AM 73.9 °F - 64.9 °F 73% 30.07 in 10.0 mi East 4.6 mph - N/A   Mostly Cloudy
8:53 AM 75.9 °F - 63.0 °F 64% 30.08 in 10.0 mi East 6.9 mph - N/A   Mostly Cloudy
9:53 AM 79.0 °F - 64.0 °F 60% 30.09 in 10.0 mi East 15.0 mph - N/A   Mostly Cloudy
10:53 AM 80.1 °F 81.9 °F 64.9 °F 60% 30.09 in 10.0 mi East 16.1 mph 24.2 mph N/A   Mostly Cloudy
11:53 AM 80.1 °F 81.9 °F 64.9 °F 60% 30.08 in 10.0 mi East 12.7 mph - N/A   Mostly Cloudy
12:53 PM 80.1 °F 81.9 °F 64.9 °F 60% 30.06 in 10.0 mi East 16.1 mph - N/A   Mostly Cloudy
1:53 PM 82.0 °F 83.8 °F 64.9 °F 56% 30.03 in 10.0 mi ENE 15.0 mph - N/A   Mostly Cloudy
2:53 PM 79.0 °F - 64.0 °F 60% 30.00 in 10.0 mi ENE 11.5 mph - N/A   Mostly Cloudy
3:53 PM 78.1 °F - 64.0 °F 62% 29.99 in 10.0 mi ENE 10.4 mph - N/A   Mostly Cloudy
4:53 PM 77.0 °F - 64.0 °F 64% 29.99 in 10.0 mi NNE 9.2 mph - N/A   Mostly Cloudy
5:53 PM 77.0 °F - 64.0 °F 64% 29.99 in 10.0 mi ENE 8.1 mph - N/A   Mostly Cloudy
6:53 PM 77.0 °F - 63.0 °F 62% 29.98 in 10.0 mi East 6.9 mph - N/A   Mostly Cloudy
7:53 PM 75.9 °F - 64.0 °F 67% 29.98 in 10.0 mi East 6.9 mph - N/A   Scattered Clouds
8:53 PM 73.9 °F - 64.0 °F 71% 29.98 in 10.0 mi East 4.6 mph - N/A   Scattered Clouds
9:53 PM 73.9 °F - 64.0 °F 71% 29.98 in 10.0 mi East 3.5 mph - N/A   Partly Cloudy
10:53 PM 73.0 °F - 64.0 °F 73% 29.98 in 10.0 mi ESE 4.6 mph - N/A   Partly Cloudy
11:53 PM 71.1 °F - 64.0 °F 78% 29.97 in 10.0 mi SE 4.6 mph - N/A   Partly Cloudy